Weather History for Cincinnati, OH

Change the Weather History Date:

Friday, August 2, 2013

  Actual Average Record
Temperature  
Mean Temperature 68 °F -  
Max Temperature 82 °F 86 °F 97 °F (1964)
Min Temperature 55 °F 65 °F 55 °F (2013)
Cooling Degree Days 4    
Growing Degree Days 18 (Base 50)    
Moisture  
Dew Point 60 °F    
Average Humidity 83    
Maximum Humidity 100    
Minimum Humidity 49    
Precipitation  
Precipitation 0.00 in - - ()
Sea Level Pressure  
Sea Level Pressure 30.00 in    
Wind  
Wind Speed 2 mph (SSW)    
Max Wind Speed 13 mph    
Max Gust Speed 20 mph    
Visibility 8 miles    
Events Fog    
Averages and records for this station are not official NWS values.
T = Trace of Precipitation, MM = Missing Value Source: NWS Daily Summary

Daily Weather History Graph

Daily Weather History Graph

Search for Another Location

Airport:

Trip Planner

Search our weather history database for the weather conditions in past years. The results will help you decide how hot, cold, wet, or windy it might be!

Date:

Astronomy

Aug. 02, 2013 Rise Set
Actual Time 6:39 AM EDT 8:47 PM EDT
Civil Twilight 6:09 AM EDT 9:17 PM EDT
Nautical Twilight 5:33 AM EDT 9:53 PM EDT
Astronomical Twilight 4:53 AM EDT 10:33 PM EDT
Moon 2:59 AM EDT (8/2) 5:44 PM EDT (8/2)
Length of Visible Light 15h 07m
Length of Day
14h 08m
Waning Crescent, 16% of the Moon is Illuminated
Aug 2
Waning Crescent
Aug 6
New
Aug 14
First Quarter
Aug 20
Full
Aug 28
Last Quarter

Hourly Weather History & Observations

Time (EDT) Temp. Heat Index Dew Point Humidity Pressure Visibility Wind Dir Wind Speed Gust Speed Precip Events Conditions
12:53 AM 61.0 °F - 60.1 °F 97% 29.99 in 10.0 mi Calm Calm - N/A   Clear
1:53 AM 60.1 °F - 60.1 °F 100% 29.99 in 10.0 mi Calm Calm - N/A   Clear
2:53 AM 60.1 °F - 59.0 °F 96% 29.99 in 10.0 mi Calm Calm - N/A   Clear
3:53 AM 60.1 °F - 59.0 °F 96% 29.98 in 9.0 mi Calm Calm - N/A   Clear
4:53 AM 57.9 °F - 57.0 °F 97% 29.99 in 6.0 mi Calm Calm - N/A   Clear
5:41 AM 57.2 °F - 57.2 °F 100% 30.01 in 1.8 mi Calm Calm - N/A   Clear
5:53 AM 59.0 °F - 59.0 °F 100% 30.01 in 3.0 mi Calm Calm - N/A   Clear
5:59 AM 55.4 °F - 55.4 °F 100% 30.01 in 1.5 mi Calm Calm - N/A   Clear
6:08 AM 57.2 °F - 57.2 °F 100% 30.01 in 0.8 mi Calm Calm - N/A   Clear
6:11 AM 57.2 °F - 57.2 °F 100% 30.01 in 2.0 mi Calm Calm - N/A   Clear
6:18 AM 57.2 °F - 57.2 °F 100% 30.01 in 4.0 mi Calm Calm - N/A   Clear
6:24 AM 57.2 °F - 57.2 °F 100% 30.02 in 1.2 mi Calm Calm - N/A   Clear
6:31 AM 57.2 °F - 57.2 °F 100% 30.02 in 0.8 mi Calm Calm - N/A   Clear
6:35 AM 57.2 °F - 57.2 °F 100% 30.02 in 2.0 mi Calm Calm - N/A   Clear
6:39 AM 55.4 °F - 55.4 °F 100% 30.02 in 8.0 mi Calm Calm - N/A   Partly Cloudy
6:48 AM 55.4 °F - 55.4 °F 100% 30.01 in 0.8 mi Calm Calm - N/A   Mist
6:53 AM 57.9 °F - 57.9 °F 100% 30.01 in 10.0 mi Calm Calm - N/A Fog Patches of Fog
7:53 AM 61.0 °F - 60.1 °F 97% 30.01 in 10.0 mi Calm Calm - N/A Fog Patches of Fog
8:53 AM 64.9 °F - 62.1 °F 90% 30.01 in 10.0 mi Calm Calm - N/A   Clear
9:03 AM 66.2 °F - 62.6 °F 88% 30.02 in 10.0 mi Calm Calm - N/A   Partly Cloudy
9:53 AM 70.0 °F - 62.1 °F 76% 30.02 in 10.0 mi Calm Calm - N/A   Clear
10:53 AM 73.9 °F - 61.0 °F 64% 30.02 in 10.0 mi SSW 3.5 mph - N/A   Clear
11:53 AM 77.0 °F - 59.0 °F 54% 30.02 in 10.0 mi SW 6.9 mph - N/A   Clear
12:53 PM 79.0 °F - 59.0 °F 50% 30.02 in 10.0 mi SSW 6.9 mph - N/A   Clear
1:53 PM 80.1 °F 80.9 °F 60.1 °F 50% 30.02 in 10.0 mi SSW 8.1 mph - N/A   Clear
2:53 PM 82.0 °F 82.7 °F 61.0 °F 49% 30.01 in 10.0 mi SSW 9.2 mph - N/A   Clear
3:53 PM 82.0 °F 83.0 °F 62.1 °F 51% 30.00 in 10.0 mi South 10.4 mph 17.3 mph N/A   Clear
4:53 PM 82.0 °F 83.0 °F 62.1 °F 51% 29.99 in 10.0 mi SSW 12.7 mph 19.6 mph N/A   Clear
5:53 PM 79.0 °F - 62.1 °F 56% 29.99 in 10.0 mi SW 12.7 mph - N/A   Clear
6:53 PM 78.1 °F - 63.0 °F 60% 29.98 in 10.0 mi SSW 9.2 mph - N/A   Clear
7:53 PM 75.0 °F - 64.0 °F 69% 29.97 in 10.0 mi South 5.8 mph - N/A   Clear
8:53 PM 73.9 °F - 64.9 °F 73% 29.98 in 10.0 mi South 3.5 mph - N/A   Partly Cloudy
9:53 PM 73.0 °F - 66.0 °F 79% 29.99 in 10.0 mi South 3.5 mph - N/A   Overcast
10:53 PM 73.0 °F - 66.0 °F 79% 29.98 in 10.0 mi South 6.9 mph - 0.00 in   Overcast
11:53 PM 73.0 °F - 66.0 °F 79% 29.97 in 10.0 mi Calm Calm - N/A   Mostly Cloudy